• In Czech Republic
  • List of Countries
  • For 7 days
  • Water Temperature
  • Satellite Maps
  • Weather Map
  • Weather Widgets
  • user-avatar
    Login

    Hourly Weather Belmopan

    Today, 17 November, Friday

    Time Temperature Precipitation Wind Pressure Humidity
    00:00 +21°C° 0 mm 0 mps 754 mmHg 89%
    01:00 +21°C° 0 mm 0 mps 754 mmHg 90%
    02:00 +20°C° 0 mm 0 mps 754 mmHg 92%
    03:00 +20°C° 0 mm 0 mps 753 mmHg 94%
    04:00 +20°C° 0 mm 0 mps 754 mmHg 95%
    05:00 +20°C° 0 mm 0 mps 754 mmHg 96%
    06:00 +20°C° 0 mm 0 mps 754 mmHg 97%
    07:00 +24°C° 0 mm 1 mps 754 mmHg 88%
    08:00 +26°C° 0 mm 1 mps 755 mmHg 79%
    09:00 +28°C° 0 mm 1 mps 755 mmHg 70%
    10:00 +30°C° 0 mm 1 mps 755 mmHg 64%
    11:00 +31°C° 0 mm 1 mps 754 mmHg 58%
    12:00 +32°C° 0 mm 1 mps 754 mmHg 52%
    13:00 +32°C° 0 mm 1 mps 753 mmHg 53%
    14:00 +31°C° 0 mm 1 mps 753 mmHg 54%
    15:00 +31°C° 0 mm 1 mps 752 mmHg 55%
    16:00 +29°C° 0 mm 1 mps 752 mmHg 63%
    17:00 +27°C° 0 mm 1 mps 752 mmHg 72%
    18:00 +25°C° 0 mm 1 mps 752 mmHg 80%
    19:00 +24°C° 0 mm 1 mps 753 mmHg 82%
    20:00 +24°C° 0 mm 1 mps 753 mmHg 84%
    21:00 +23°C° 0 mm 1 mps 754 mmHg 86%
    22:00 +20°C° 0 mm 0 mps 753 mmHg 87%
    23:00 +20°C° 0 mm 0 mps 753 mmHg 88%

    Tomorrow, 18 November, Saturday

    Time Temperature Precipitation Wind Pressure Humidity
    00:00 +19°C° 0 mm 0 mps 753 mmHg 89%
    01:00 +19°C° 0 mm 0 mps 753 mmHg 90%
    02:00 +19°C° 0 mm 0 mps 753 mmHg 91%
    03:00 +21°C° 0 mm 1 mps 752 mmHg 92%
    04:00 +20°C° 0 mm 1 mps 753 mmHg 94%
    05:00 +20°C° 0 mm 1 mps 753 mmHg 95%
    06:00 +20°C° 0 mm 1 mps 753 mmHg 97%
    07:00 +23°C° 0 mm 1 mps 753 mmHg 87%
    08:00 +23°C° 0 mm 0 mps 754 mmHg 78%
    09:00 +26°C° 0 mm 0 mps 754 mmHg 68%
    10:00 +30°C° 0 mm 1 mps 754 mmHg 62%
    11:00 +31°C° 0 mm 1 mps 753 mmHg 56%
    12:00 +32°C° 0 mm 1 mps 753 mmHg 49%
    13:00 +32°C° 0 mm 1 mps 752 mmHg 50%
    14:00 +32°C° 0 mm 1 mps 751 mmHg 51%
    15:00 +31°C° 0 mm 1 mps 750 mmHg 52%
    16:00 +29°C° 0 mm 1 mps 751 mmHg 63%
    17:00 +27°C° 0 mm 1 mps 751 mmHg 73%
    18:00 +25°C° 0 mm 1 mps 751 mmHg 83%
    19:00 +24°C° 0 mm 1 mps 752 mmHg 86%
    20:00 +24°C° 0 mm 1 mps 752 mmHg 89%
    21:00 +23°C° 0 mm 1 mps 753 mmHg 93%
    22:00 +21°C° 0 mm 0 mps 753 mmHg 93%
    23:00 +20°C° 0 mm 0 mps 753 mmHg 94%

    Day after tomorrow, 19 November, Sunday

    Time Temperature Precipitation Wind Pressure Humidity
    00:00 +20°C° 0 mm 0 mps 753 mmHg 95%
    01:00 +20°C° 0 mm 0 mps 752 mmHg 95%
    02:00 +19°C° 0 mm 0 mps 752 mmHg 95%
    03:00 +19°C° 0 mm 0 mps 752 mmHg 95%
    04:00 +19°C° 0 mm 0 mps 752 mmHg 95%
    05:00 +20°C° 0 mm 1 mps 753 mmHg 96%
    06:00 +20°C° 0 mm 1 mps 753 mmHg 96%
    07:00 +23°C° 0 mm 1 mps 753 mmHg 87%
    08:00 +25°C° 0 mm 1 mps 754 mmHg 78%
    09:00 +28°C° 0 mm 1 mps 755 mmHg 68%
    10:00 +28°C° 0.3 mm 1 mps 754 mmHg 67%
    11:00 +29°C° 0.3 mm 1 mps 754 mmHg 66%
    12:00 +30°C° 0.3 mm 1 mps 754 mmHg 65%
    13:00 +30°C° 1 mm 1 mps 753 mmHg 69%
    14:00 +29°C° 1 mm 1 mps 752 mmHg 73%
    15:00 +28°C° 1 mm 1 mps 752 mmHg 77%
    16:00 +27°C° 0.4 mm 1 mps 752 mmHg 82%
    17:00 +25°C° 0.4 mm 1 mps 752 mmHg 87%
    18:00 +22°C° 0.4 mm 0 mps 752 mmHg 92%
    19:00 +21°C° 0.1 mm 0 mps 753 mmHg 92%
    20:00 +21°C° 0.1 mm 0 mps 754 mmHg 93%
    21:00 +21°C° 0.1 mm 0 mps 754 mmHg 94%
    22:00 +20°C° 0.1 mm 0 mps 754 mmHg 94%
    23:00 +22°C° 0.1 mm 1 mps 754 mmHg 95%

    20 November, Monday

    Time Temperature Precipitation Wind Pressure Humidity
    00:00 +22°C° 0.1 mm 1 mps 754 mmHg 96%
    01:00 +22°C° 0 mm 1 mps 754 mmHg 97%
    02:00 +21°C° 0 mm 1 mps 754 mmHg 97%
    03:00 +21°C° 0 mm 1 mps 753 mmHg 98%
    04:00 +21°C° 0.1 mm 1 mps 753 mmHg 98%
    05:00 +21°C° 0.1 mm 1 mps 754 mmHg 98%
    06:00 +21°C° 0.1 mm 1 mps 754 mmHg 98%
    07:00 +23°C° 0 mm 1 mps 754 mmHg 93%
    08:00 +24°C° 0 mm 1 mps 755 mmHg 89%
    09:00 +25°C° 0 mm 1 mps 755 mmHg 84%
    10:00 +27°C° 0.1 mm 1 mps 755 mmHg 75%
    11:00 +29°C° 0.1 mm 1 mps 754 mmHg 66%
    12:00 +30°C° 0.1 mm 1 mps 754 mmHg 57%
    13:00 +30°C° 0.1 mm 1 mps 753 mmHg 57%
    14:00 +30°C° 0.1 mm 1 mps 752 mmHg 58%
    15:00 +30°C° 0.1 mm 1 mps 752 mmHg 58%
    16:00 +28°C° 0 mm 1 mps 752 mmHg 66%
    17:00 +27°C° 0 mm 1 mps 752 mmHg 74%
    18:00 +23°C° 0 mm 0 mps 752 mmHg 82%
    19:00 +22°C° 0 mm 0 mps 753 mmHg 84%
    20:00 +22°C° 0 mm 0 mps 753 mmHg 86%
    21:00 +21°C° 0 mm 0 mps 753 mmHg 89%
    22:00 +21°C° 0 mm 0 mps 753 mmHg 90%
    23:00 +21°C° 0 mm 0 mps 753 mmHg 91%

    21 November, Tuesday

    Time Temperature Precipitation Wind Pressure Humidity
    00:00 +21°C° 0 mm 0 mps 753 mmHg 93%
    01:00 +20°C° 0 mm 0 mps 752 mmHg 94%
    02:00 +20°C° 0 mm 0 mps 752 mmHg 95%
    03:00 +20°C° 0 mm 0 mps 752 mmHg 96%
    04:00 +20°C° 0 mm 0 mps 752 mmHg 97%
    05:00 +19°C° 0 mm 0 mps 752 mmHg 97%
    06:00 +19°C° 0 mm 0 mps 753 mmHg 98%
    07:00 +22°C° 0 mm 0 mps 753 mmHg 88%
    08:00 +24°C° 0 mm 0 mps 753 mmHg 78%
    09:00 +27°C° 0 mm 0 mps 754 mmHg 67%
    10:00 +28°C° 0 mm 0 mps 753 mmHg 63%
    11:00 +31°C° 0 mm 1 mps 753 mmHg 58%
    12:00 +32°C° 0 mm 1 mps 752 mmHg 54%
    13:00 +31°C° 0 mm 1 mps 751 mmHg 56%
    14:00 +31°C° 0 mm 1 mps 751 mmHg 59%
    15:00 +30°C° 0 mm 1 mps 750 mmHg 61%
    16:00 +29°C° 0 mm 1 mps 750 mmHg 69%
    17:00 +27°C° 0 mm 1 mps 750 mmHg 77%
    18:00 +25°C° 0 mm 1 mps 751 mmHg 85%
    19:00 +25°C° 0 mm 1 mps 751 mmHg 88%
    20:00 +24°C° 0 mm 1 mps 752 mmHg 91%
    21:00 +23°C° 0 mm 1 mps 752 mmHg 94%
    22:00 +23°C° 0 mm 1 mps 752 mmHg 95%
    23:00 +21°C° 0 mm 0 mps 752 mmHg 96%

    22 November, Wednesday

    Time Temperature Precipitation Wind Pressure Humidity
    00:00 +20°C° 0 mm 0 mps 751 mmHg 97%
    01:00 +20°C° 0 mm 0 mps 751 mmHg 98%
    02:00 +20°C° 0 mm 0 mps 751 mmHg 98%
    03:00 +19°C° 0 mm 0 mps 751 mmHg 98%
    04:00 +19°C° 0 mm 0 mps 751 mmHg 98%
    05:00 +19°C° 0 mm 0 mps 751 mmHg 98%
    06:00 +19°C° 0 mm 0 mps 752 mmHg 98%
    07:00 +22°C° 0 mm 0 mps 752 mmHg 87%
    08:00 +25°C° 0 mm 0 mps 752 mmHg 77%
    09:00 +27°C° 0 mm 0 mps 753 mmHg 66%
    10:00 +28°C° 0.1 mm 0 mps 752 mmHg 63%
    11:00 +31°C° 0.1 mm 1 mps 752 mmHg 60%
    12:00 +32°C° 0.1 mm 1 mps 751 mmHg 56%
    13:00 +32°C° 0.7 mm 1 mps 751 mmHg 61%
    14:00 +31°C° 0.7 mm 1 mps 750 mmHg 67%
    15:00 +30°C° 0.7 mm 1 mps 749 mmHg 72%
    16:00 +28°C° 0.5 mm 1 mps 750 mmHg 79%
    17:00 +26°C° 0.5 mm 1 mps 750 mmHg 86%
    18:00 +25°C° 0.5 mm 1 mps 750 mmHg 94%
    19:00 +24°C° 0.3 mm 1 mps 751 mmHg 95%
    20:00 +22°C° 0.3 mm 0 mps 752 mmHg 96%
    21:00 +21°C° 0.3 mm 0 mps 752 mmHg 96%
    22:00 +23°C° 0.5 mm 1 mps 752 mmHg 97%
    23:00 +23°C° 0.5 mm 1 mps 752 mmHg 98%
    Show more